| time (UTC) | temp F | wind direction | speed MPH | gust MPH | rain 1hr in | rain 24hr in | rain mn in | humidity % | barometer mb |
| 20260902191142 | 95 | 227 | 3.0 | 7.0 | 0.00 | 0.00 | 0.00 | 39 | 1017.0 |
| 20260902190641 | 94 | 275 | 3.0 | 7.0 | 0.00 | 0.00 | 0.00 | 39 | 1017.1 |
| 20260902190138 | 94 | 288 | 3.0 | 7.0 | 0.00 | 0.00 | 0.00 | 39 | 1017.2 |
| 20260902185637 | 94 | 274 | 2.0 | 8.0 | 0.00 | 0.00 | 0.00 | 40 | 1017.3 |
| 20260902185136 | 93 | 314 | 3.0 | 8.0 | 0.00 | 0.00 | 0.00 | 40 | 1017.3 |
| 20260902184633 | 93 | 221 | 3.0 | 9.0 | 0.00 | 0.00 | 0.00 | 40 | 1017.4 |
| 20260902184132 | 93 | 222 | 3.0 | 9.0 | 0.00 | 0.00 | 0.00 | 41 | 1017.4 |
| 20260902184116 | 93 | 253 | 3.0 | 7.0 | 0.00 | 0.00 | 0.00 | 42 | 1017.5 |
| 20260902183354 | 93 | 268 | 2.0 | 7.0 | 0.00 | 0.00 | 0.00 | 41 | 1017.6 |
| 20260902182850 | 93 | 296 | 2.0 | 6.0 | 0.00 | 0.00 | 0.00 | 41 | 1017.6 |
| 20260902182131 | 92 | 287 | 3.0 | 6.0 | 0.00 | 0.00 | 0.00 | 42 | 1017.6 |
| 20260902181630 | 92 | 308 | 3.0 | 7.0 | 0.00 | 0.00 | 0.00 | 42 | 1017.7 |
| 20260902181129 | 92 | 213 | 2.0 | 7.0 | 0.00 | 0.00 | 0.00 | 42 | 1017.8 |
| 20260902180628 | 92 | 231 | 2.0 | 6.0 | 0.00 | 0.00 | 0.00 | 43 | 1017.9 |
| 20260902180127 | 92 | 243 | 4.0 | 8.0 | 0.00 | 0.00 | 0.00 | 44 | 1017.9 |
| 20260902175627 | 92 | 239 | 3.0 | 8.0 | 0.00 | 0.00 | 0.00 | 44 | 1018.0 |
| 20260902175345 | 91 | 248 | 2.0 | 6.0 | 0.00 | 0.00 | 0.00 | 45 | 1017.9 |
| 20260902174851 | 91 | 329 | 2.0 | 6.0 | 0.00 | 0.00 | 0.00 | 44 | 1018.0 |
| 20260902174119 | 91 | 316 | 1.0 | 5.0 | 0.00 | 0.00 | 0.00 | 43 | 1017.9 |
| 20260902173848 | 91 | 47 | 1.0 | 5.0 | 0.00 | 0.00 | 0.00 | 45 | 1018.0 |
| 20260902173120 | 91 | 266 | 1.0 | 5.0 | 0.00 | 0.00 | 0.00 | 45 | 1018.0 |
| 20260902172832 | 91 | 252 | 1.0 | 5.0 | 0.00 | 0.00 | 0.00 | 44 | 1018.1 |
| 20260902172116 | 92 | 271 | 1.0 | 4.0 | 0.00 | 0.00 | 0.00 | 43 | 1018.1 |
| 20260902171615 | 92 | 146 | 1.0 | 3.0 | 0.00 | 0.00 | 0.00 | 45 | 1018.1 |
| 20260902171113 | 91 | 146 | 1.0 | 4.0 | 0.00 | 0.00 | 0.00 | 45 | 1018.1 |
| 20260902170613 | 91 | 193 | 1.0 | 4.0 | 0.00 | 0.00 | 0.00 | 45 | 1018.2 |
| 20260902170112 | 92 | 236 | 1.0 | 3.0 | 0.00 | 0.00 | 0.00 | 45 | 1018.2 |
| 20260902165613 | 91 | 214 | 0.0 | 2.0 | 0.00 | 0.00 | 0.00 | 45 | 1018.2 |
| 20260902165112 | 91 | 352 | 1.0 | 4.0 | 0.00 | 0.00 | 0.00 | 45 | 1018.2 |
| 20260902164607 | 91 | 143 | 1.0 | 5.0 | 0.00 | 0.00 | 0.00 | 45 | 1018.2 |
| 20260902164106 | 90 | 215 | 0.0 | 5.0 | 0.00 | 0.00 | 0.00 | 46 | 1018.2 |
| 20260902163841 | 90 | 277 | 0.0 | 4.0 | 0.00 | 0.00 | 0.00 | 46 | 1018.4 |
| 20260902163108 | 90 | 161 | 0.0 | 2.0 | 0.00 | 0.00 | 0.00 | 46 | 1018.4 |
| 20260902162607 | 90 | 153 | 0.0 | 2.0 | 0.00 | 0.00 | 0.00 | 47 | 1018.2 |
| 20260902162109 | 89 | 111 | 1.0 | 4.0 | 0.00 | 0.00 | 0.00 | 47 | 1018.4 |
| 20260902161607 | 89 | 215 | 1.0 | 4.0 | 0.00 | 0.00 | 0.00 | 47 | 1018.4 |
| 20260902161109 | 89 | 134 | 1.0 | 4.0 | 0.00 | 0.00 | 0.00 | 48 | 1018.2 |
| 20260902160602 | 89 | 255 | 1.0 | 4.0 | 0.00 | 0.00 | 0.00 | 48 | 1018.2 |
| 20260902160103 | 89 | 151 | 1.0 | 4.0 | 0.00 | 0.00 | 0.00 | 49 | 1018.2 |
| 20260902155829 | 88 | 136 | 1.0 | 4.0 | 0.00 | 0.00 | 0.00 | 49 | 1018.2 |
| 20260902155102 | 87 | 222 | 0.0 | 4.0 | 0.00 | 0.00 | 0.00 | 50 | 1018.2 |
| 20260902154603 | 87 | 129 | 1.0 | 4.0 | 0.00 | 0.00 | 0.00 | 50 | 1018.2 |
| 20260902154103 | 87 | 244 | 1.0 | 4.0 | 0.00 | 0.00 | 0.00 | 50 | 1018.2 |
| 20260902153603 | 87 | 234 | 1.0 | 3.0 | 0.00 | 0.00 | 0.00 | 50 | 1018.2 |
| 20260902153104 | 87 | 91 | 0.0 | 2.0 | 0.00 | 0.00 | 0.00 | 50 | 1018.4 |
| 20260902152603 | 87 | 223 | 0.0 | 1.0 | 0.00 | 0.00 | 0.00 | 49 | 1018.4 |
| 20260902152104 | 87 | 184 | 0.0 | 2.0 | 0.00 | 0.00 | 0.00 | 49 | 1018.4 |
| 20260902151602 | 87 | 145 | 0.0 | 4.0 | 0.00 | 0.00 | 0.00 | 50 | 1018.4 |
| 20260902151102 | 86 | 136 | 1.0 | 4.0 | 0.00 | 0.00 | 0.00 | 51 | 1018.4 |
| 20260902150602 | 86 | 233 | 0.0 | 3.0 | 0.00 | 0.00 | 0.00 | 51 | 1018.4 |
| 20260902150328 | 86 | 131 | 0.0 | 0.0 | 0.00 | 0.00 | 0.00 | 51 | 1018.2 |
| 20260902145603 | 86 | 131 | 0.0 | 0.0 | 0.00 | 0.00 | 0.00 | 52 | 1018.2 |
| 20260902145102 | 86 | 131 | 0.0 | 0.0 | 0.00 | 0.00 | 0.00 | 53 | 1018.1 |
| 20260902144604 | 85 | 131 | 0.0 | 0.0 | 0.00 | 0.00 | 0.00 | 56 | 1018.1 |
| 20260902144053 | 83 | 131 | 0.0 | 0.0 | 0.00 | 0.00 | 0.00 | 58 | 1018.1 |
| 20260902143549 | 83 | 216 | 0.0 | 0.0 | 0.00 | 0.00 | 0.00 | 60 | 1018.1 |
| 20260902143043 | 82 | 216 | 0.0 | 0.0 | 0.00 | 0.00 | 0.00 | 60 | 1018.1 |
| 20260902142532 | 82 | 171 | 0.0 | 0.0 | 0.00 | 0.00 | 0.00 | 61 | 1018.1 |
| 20260902142026 | 81 | 56 | 0.0 | 0.0 | 0.00 | 0.00 | 0.00 | 61 | 1018.1 |
| 20260902141743 | 80 | 56 | 0.0 | 0.0 | 0.00 | 0.00 | 0.00 | 62 | 1018.1 |
| 20260902141010 | 80 | 70 | 0.0 | 0.0 | 0.00 | 0.00 | 0.00 | 64 | 1018.0 |
| 20260902140728 | 80 | 70 | 0.0 | 0.0 | 0.00 | 0.00 | 0.00 | 63 | 1018.0 |
| 20260902135958 | 81 | 70 | 0.0 | 0.0 | 0.00 | 0.00 | 0.00 | 61 | 1017.9 |
| 20260902135447 | 81 | 70 | 0.0 | 0.0 | 0.00 | 0.00 | 0.00 | 62 | 1017.9 |
| 20260902135042 | 80 | 70 | 0.0 | 0.0 | 0.00 | 0.00 | 0.00 | 63 | 1017.8 |
| 20260902133926 | 78 | 70 | 0.0 | 0.0 | 0.00 | 0.00 | 0.00 | 66 | 1017.7 |
| 20260902133642 | 78 | 70 | 0.0 | 0.0 | 0.00 | 0.00 | 0.00 | 66 | 1017.7 |
| 20260902133137 | 77 | 70 | 0.0 | 0.0 | 0.00 | 0.00 | 0.00 | 69 | 1017.6 |
| 20260902132404 | 76 | 70 | 0.0 | 0.0 | 0.00 | 0.00 | 0.00 | 70 | 1017.5 |
| 20260902131857 | 76 | 70 | 0.0 | 0.0 | 0.00 | 0.00 | 0.00 | 71 | 1017.5 |
| 20260902131351 | 75 | 70 | 0.0 | 0.0 | 0.00 | 0.00 | 0.00 | 72 | 1017.4 |
| 20260902131105 | 75 | 67 | 0.0 | 0.0 | 0.00 | 0.00 | 0.00 | 73 | 1017.4 |
| 20260902130336 | 75 | 67 | 0.0 | 0.0 | 0.00 | 0.00 | 0.00 | 73 | 1017.4 |
| 20260902125830 | 74 | 67 | 0.0 | 0.0 | 0.00 | 0.00 | 0.00 | 73 | 1017.3 |
| 20260902125319 | 74 | 67 | 0.0 | 0.0 | 0.00 | 0.00 | 0.00 | 73 | 1017.4 |
| 20260902124814 | 74 | 67 | 0.0 | 0.0 | 0.00 | 0.00 | 0.00 | 74 | 1017.4 |
| 20260902124308 | 74 | 67 | 0.0 | 0.0 | 0.00 | 0.00 | 0.00 | 73 | 1017.4 |
| 20260902123757 | 74 | 67 | 0.0 | 0.0 | 0.00 | 0.00 | 0.00 | 73 | 1017.3 |
| 20260902123252 | 74 | 67 | 0.0 | 0.0 | 0.00 | 0.00 | 0.00 | 73 | 1017.2 |
| 20260902122746 | 74 | 29 | 0.0 | 0.0 | 0.00 | 0.00 | 0.00 | 73 | 1017.2 |
| 20260902122236 | 75 | 29 | 0.0 | 0.0 | 0.00 | 0.00 | 0.00 | 73 | 1017.2 |
| 20260902121730 | 75 | 29 | 0.0 | 0.0 | 0.00 | 0.00 | 0.00 | 73 | 1017.2 |
| 20260902121224 | 75 | 138 | 0.0 | 0.0 | 0.00 | 0.00 | 0.00 | 73 | 1017.1 |
| 20260902120713 | 75 | 139 | 0.0 | 0.0 | 0.00 | 0.00 | 0.00 | 73 | 1017.2 |
| 20260902120208 | 75 | 145 | 0.0 | 0.0 | 0.00 | 0.00 | 0.00 | 72 | 1017.2 |
| 20260902115702 | 75 | 145 | 0.0 | 0.0 | 0.00 | 0.00 | 0.00 | 72 | 1017.1 |
| 20260902115414 | 75 | 145 | 0.0 | 0.0 | 0.00 | 0.00 | 0.00 | 71 | 1017.1 |
| 20260902114646 | 75 | 145 | 0.0 | 0.0 | 0.00 | 0.00 | 0.00 | 71 | 1017.2 |
| 20260902114140 | 75 | 145 | 0.0 | 0.0 | 0.00 | 0.00 | 0.00 | 72 | 1017.1 |
| 20260902113630 | 75 | 145 | 0.0 | 0.0 | 0.00 | 0.00 | 0.00 | 72 | 1017.1 |
| 20260902113347 | 75 | 145 | 0.0 | 0.0 | 0.00 | 0.00 | 0.00 | 73 | 1017.1 |
| 20260902112618 | 75 | 145 | 0.0 | 0.0 | 0.00 | 0.00 | 0.00 | 73 | 1017.1 |
| 20260902112107 | 75 | 145 | 0.0 | 0.0 | 0.00 | 0.00 | 0.00 | 73 | 1017.1 |
| 20260902111602 | 75 | 145 | 0.0 | 0.0 | 0.00 | 0.00 | 0.00 | 72 | 1017.1 |
| 20260902111056 | 75 | 145 | 0.0 | 0.0 | 0.00 | 0.00 | 0.00 | 71 | 1017.2 |
| 20260902110546 | 75 | 145 | 0.0 | 0.0 | 0.00 | 0.00 | 0.00 | 70 | 1017.1 |
| 20260902110040 | 75 | 145 | 0.0 | 0.0 | 0.00 | 0.00 | 0.00 | 70 | 1017.1 |
| 20260902105759 | 76 | 145 | 0.0 | 0.0 | 0.00 | 0.00 | 0.00 | 70 | 1017.1 |
| 20260902105022 | 76 | 145 | 0.0 | 0.0 | 0.00 | 0.00 | 0.00 | 70 | 1017.1 |
| 20260902104522 | 76 | 115 | 0.0 | 0.0 | 0.00 | 0.00 | 0.00 | 70 | 1017.2 |
| 20260902104007 | 76 | 115 | 0.0 | 0.0 | 0.00 | 0.00 | 0.00 | 70 | 1017.2 |
| 20260902103718 | 76 | 115 | 0.0 | 0.0 | 0.00 | 0.00 | 0.00 | 70 | 1017.2 |
| 20260902102952 | 76 | 115 | 0.0 | 0.0 | 0.00 | 0.00 | 0.00 | 70 | 1017.2 |
| 20260902102446 | 76 | 115 | 0.0 | 0.0 | 0.00 | 0.00 | 0.00 | 70 | 1017.2 |
| 20260902101936 | 76 | 115 | 0.0 | 0.0 | 0.00 | 0.00 | 0.00 | 70 | 1017.3 |
| 20260902101430 | 76 | 115 | 0.0 | 0.0 | 0.00 | 0.00 | 0.00 | 70 | 1017.3 |
| 20260902100923 | 76 | 229 | 0.0 | 0.0 | 0.00 | 0.00 | 0.00 | 70 | 1017.3 |
| 20260902100643 | 76 | 229 | 0.0 | 0.0 | 0.00 | 0.00 | 0.00 | 70 | 1017.3 |
| 20260902095907 | 76 | 229 | 0.0 | 0.0 | 0.00 | 0.00 | 0.00 | 70 | 1017.2 |
| 20260902095402 | 76 | 229 | 0.0 | 0.0 | 0.00 | 0.00 | 0.00 | 70 | 1017.2 |
| 20260902094851 | 76 | 229 | 0.0 | 0.0 | 0.00 | 0.00 | 0.00 | 70 | 1017.3 |
| 20260902094346 | 76 | 229 | 0.0 | 0.0 | 0.00 | 0.00 | 0.00 | 69 | 1017.3 |
| 20260902093839 | 76 | 229 | 0.0 | 0.0 | 0.00 | 0.00 | 0.00 | 69 | 1017.3 |
| 20260902093329 | 77 | 229 | 0.0 | 2.0 | 0.00 | 0.00 | 0.00 | 68 | 1017.2 |
| 20260902092823 | 77 | 229 | 0.0 | 2.0 | 0.00 | 0.00 | 0.00 | 68 | 1017.1 |
| 20260902092545 | 77 | 215 | 0.0 | 3.0 | 0.00 | 0.00 | 0.00 | 68 | 1017.1 |
| 20260902091808 | 77 | 234 | 1.0 | 3.0 | 0.00 | 0.00 | 0.00 | 67 | 1017.1 |
| 20260902091302 | 77 | 162 | 1.0 | 3.0 | 0.00 | 0.00 | 0.00 | 67 | 1017.1 |
| 20260902091015 | 77 | 209 | 1.0 | 4.0 | 0.00 | 0.00 | 0.00 | 66 | 1017.1 |
| 20260902090245 | 77 | 162 | 2.0 | 5.0 | 0.00 | 0.00 | 0.00 | 66 | 1017.0 |
| 20260902085740 | 78 | 134 | 1.0 | 5.0 | 0.00 | 0.00 | 0.00 | 66 | 1017.0 |
| 20260902085233 | 78 | 170 | 1.0 | 3.0 | 0.00 | 0.00 | 0.00 | 65 | 1016.8 |
| 20260902084723 | 78 | 223 | 1.0 | 3.0 | 0.00 | 0.00 | 0.00 | 65 | 1017.1 |
| 20260902084435 | 78 | 157 | 0.0 | 2.0 | 0.00 | 0.00 | 0.00 | 65 | 1017.0 |
| 20260902083711 | 78 | 221 | 0.0 | 0.0 | 0.00 | 0.00 | 0.00 | 65 | 1017.0 |
| 20260902083427 | 78 | 146 | 0.0 | 0.0 | 0.00 | 0.00 | 0.00 | 64 | 1017.0 |
| 20260902082656 | 78 | 146 | 0.0 | 0.0 | 0.00 | 0.00 | 0.00 | 63 | 1016.8 |
| 20260902082417 | 78 | 146 | 0.0 | 2.0 | 0.00 | 0.00 | 0.00 | 62 | 1016.8 |
| 20260902081640 | 78 | 146 | 0.0 | 2.0 | 0.00 | 0.00 | 0.00 | 62 | 1016.8 |
| 20260902081613 | 78 | 150 | 0.0 | 0.0 | 0.00 | 0.00 | 0.00 | 63 | 1016.8 |
| 20260902080627 | 78 | 91 | 0.0 | 0.0 | 0.00 | 0.00 | 0.00 | 62 | 1016.8 |
| 20260902080117 | 79 | 91 | 0.0 | 0.0 | 0.00 | 0.00 | 0.00 | 62 | 1016.8 |
| 20260902075612 | 79 | 91 | 0.0 | 0.0 | 0.00 | 0.00 | 0.00 | 62 | 1017.0 |
| 20260902075105 | 79 | 91 | 0.0 | 2.0 | 0.00 | 0.00 | 0.00 | 62 | 1017.0 |
| 20260902074557 | 79 | 91 | 0.0 | 2.0 | 0.00 | 0.00 | 0.00 | 62 | 1016.8 |
| 20260902074539 | 79 | 153 | 0.0 | 0.0 | 0.00 | 0.00 | 0.00 | 62 | 1016.7 |
| 20260902073544 | 79 | 154 | 0.0 | 0.0 | 0.00 | 0.00 | 0.00 | 62 | 1016.8 |
| 20260902073034 | 79 | 154 | 0.0 | 0.0 | 0.00 | 0.00 | 0.00 | 62 | 1016.8 |
| 20260902072528 | 79 | 154 | 0.0 | 0.0 | 0.00 | 0.00 | 0.00 | 62 | 1016.7 |
| 20260902072507 | 79 | 154 | 0.0 | 0.0 | 0.00 | 0.00 | 0.00 | 62 | 1016.7 |
| 20260902071733 | 80 | 154 | 0.0 | 0.0 | 0.00 | 0.00 | 0.00 | 61 | 1016.7 |
| 20260902071012 | 80 | 191 | 1.0 | 4.0 | 0.00 | 0.00 | 0.00 | 61 | 1016.7 |
| 20260902070725 | 80 | 212 | 1.0 | 4.0 | 0.00 | 0.00 | 0.00 | 60 | 1016.7 |
| 20260902070008 | 80 | 143 | 1.0 | 3.0 | 0.00 | 0.00 | 0.00 | 60 | 1016.6 |
| 20260902065505 | 80 | 236 | 1.0 | 4.0 | 0.00 | 0.00 | 0.00 | 60 | 1016.6 |
| 20260902065100 | 80 | 160 | 1.0 | 4.0 | 0.00 | 0.00 | 0.00 | 59 | 1016.6 |
| 20260902064004 | 80 | 136 | 1.0 | 5.0 | 0.00 | 0.00 | 0.00 | 58 | 1016.6 |
| 20260902063504 | 80 | 143 | 1.0 | 5.0 | 0.00 | 0.00 | 0.00 | 57 | 1016.6 |
| 20260902063221 | 80 | 153 | 1.0 | 4.0 | 0.00 | 0.00 | 0.00 | 57 | 1016.6 |
| 20260902062504 | 80 | 151 | 0.0 | 3.0 | 0.00 | 0.00 | 0.00 | 57 | 1016.6 |
| 20260902062322 | 80 | 123 | 0.0 | 0.0 | 0.00 | 0.00 | 0.00 | 57 | 1016.6 |
| 20260902061223 | 81 | 143 | 0.0 | 2.0 | 0.00 | 0.00 | 0.00 | 57 | 1016.6 |
| 20260902060459 | 81 | 146 | 0.0 | 2.0 | 0.00 | 0.00 | 0.00 | 57 | 1016.6 |
| 20260902060223 | 81 | 231 | 0.0 | 2.0 | 0.00 | 0.00 | 0.00 | 57 | 1016.6 |
| 20260902055454 | 81 | 188 | 1.0 | 2.0 | 0.00 | 0.00 | 0.00 | 57 | 1016.5 |
| 20260902054948 | 81 | 162 | 1.0 | 3.0 | 0.00 | 0.00 | 0.00 | 57 | 1016.6 |
| 20260902054709 | 81 | 125 | 1.0 | 3.0 | 0.00 | 0.00 | 0.00 | 57 | 1016.6 |
| 20260902054159 | 81 | 150 | 1.0 | 2.0 | 0.00 | 0.00 | 0.00 | 58 | 1016.6 |
| 20260902053441 | 81 | 171 | 1.0 | 2.0 | 0.00 | 0.00 | 0.00 | 58 | 1016.7 |
| 20260902052940 | 81 | 195 | 0.0 | 2.0 | 0.00 | 0.00 | 0.00 | 58 | 1016.7 |
| 20260902052701 | 82 | 162 | 0.0 | 2.0 | 0.00 | 0.00 | 0.00 | 57 | 1016.7 |
| 20260902051940 | 82 | 134 | 0.0 | 2.0 | 0.00 | 0.00 | 0.00 | 57 | 1016.7 |
| 20260902051438 | 82 | 163 | 0.0 | 2.0 | 0.00 | 0.00 | 0.00 | 57 | 1016.7 |
| 20260902051204 | 82 | 129 | 0.0 | 1.0 | 0.00 | 0.00 | 0.00 | 56 | 1016.8 |
| 20260902050439 | 82 | 129 | 0.0 | 1.0 | 0.00 | 0.00 | 0.00 | 56 | 1016.8 |
| 20260902050205 | 82 | 194 | 0.0 | 0.0 | 0.00 | 0.00 | 0.00 | 54 | 1016.8 |
| 20260902045438 | 83 | 250 | 0.0 | 0.0 | 0.00 | 0.00 | 0.00 | 54 | 1016.8 |
| 20260902044939 | 83 | 250 | 0.0 | 0.0 | 0.00 | 0.00 | 0.00 | 53 | 1016.8 |
| 20260902044437 | 83 | 250 | 0.0 | 0.0 | 0.00 | 0.00 | 0.00 | 53 | 1016.7 |
| 20260902043938 | 84 | 250 | 0.0 | 0.0 | 0.00 | 0.00 | 0.00 | 51 | 1016.6 |
| 20260902043437 | 84 | 250 | 0.0 | 0.0 | 0.00 | 0.00 | 0.00 | 50 | 1016.6 |
| 20260902042938 | 84 | 250 | 0.0 | 0.0 | 0.00 | 0.00 | 0.00 | 50 | 1016.6 |
| 20260902042438 | 84 | 251 | 0.0 | 2.0 | 0.00 | 0.00 | 0.00 | 50 | 1016.6 |
| 20260902041939 | 85 | 226 | 1.0 | 3.0 | 0.00 | 0.00 | 0.00 | 49 | 1016.5 |
| 20260902041433 | 85 | 248 | 1.0 | 4.0 | 0.00 | 0.00 | 0.00 | 49 | 1016.5 |
| 20260902040933 | 85 | 249 | 1.0 | 4.0 | 0.00 | 0.00 | 0.00 | 49 | 1016.4 |
| 20260902040434 | 85 | 268 | 1.0 | 2.0 | 0.00 | 0.00 | 0.00 | 48 | 1016.4 |
| 20260902035933 | 85 | 247 | 0.0 | 2.0 | 0.00 | 0.00 | 0.00 | 48 | 1016.4 |
| 20260902035434 | 85 | 251 | 0.0 | 2.0 | 0.00 | 0.00 | 0.00 | 47 | 1016.3 |
| 20260902035423 | 85 | 240 | 1.0 | 4.0 | 0.00 | 0.00 | 0.00 | 47 | 1016.2 |
| 20260902034434 | 85 | 240 | 1.0 | 4.0 | 0.00 | 0.00 | 0.00 | 47 | 1016.1 |
| 20260902033933 | 85 | 255 | 1.0 | 3.0 | 0.00 | 0.00 | 0.00 | 47 | 1016.1 |
| 20260902033430 | 85 | 248 | 1.0 | 4.0 | 0.00 | 0.00 | 0.00 | 47 | 1016.0 |
| 20260902032931 | 85 | 251 | 1.0 | 4.0 | 0.00 | 0.00 | 0.00 | 47 | 1015.9 |
| 20260902032429 | 86 | 244 | 1.0 | 4.0 | 0.00 | 0.00 | 0.00 | 47 | 1015.8 |
| 20260902031932 | 86 | 276 | 2.0 | 4.0 | 0.00 | 0.00 | 0.00 | 47 | 1015.5 |
| 20260902031427 | 86 | 227 | 2.0 | 6.0 | 0.00 | 0.00 | 0.00 | 47 | 1015.4 |
| 20260902031151 | 86 | 250 | 2.0 | 6.0 | 0.00 | 0.00 | 0.00 | 47 | 1015.4 |
| 20260902030429 | 86 | 273 | 1.0 | 4.0 | 0.00 | 0.00 | 0.00 | 47 | 1015.2 |
| 20260902025929 | 86 | 258 | 1.0 | 4.0 | 0.00 | 0.00 | 0.00 | 47 | 1015.1 |
| 20260902025427 | 86 | 262 | 1.0 | 3.0 | 0.00 | 0.00 | 0.00 | 46 | 1015.1 |
| 20260902024922 | 86 | 253 | 1.0 | 3.0 | 0.00 | 0.00 | 0.00 | 45 | 1014.9 |
| 20260902024646 | 86 | 257 | 1.0 | 4.0 | 0.00 | 0.00 | 0.00 | 44 | 1014.9 |
| 20260902023921 | 87 | 256 | 2.0 | 4.0 | 0.00 | 0.00 | 0.00 | 43 | 1014.8 |
| 20260902023643 | 87 | 259 | 2.0 | 4.0 | 0.00 | 0.00 | 0.00 | 43 | 1014.7 |
| 20260902022919 | 87 | 256 | 2.0 | 4.0 | 0.00 | 0.00 | 0.00 | 42 | 1014.7 |
| 20260902022420 | 87 | 266 | 3.0 | 6.0 | 0.00 | 0.00 | 0.00 | 42 | 1014.7 |
| 20260902021920 | 87 | 260 | 2.0 | 6.0 | 0.00 | 0.00 | 0.00 | 42 | 1014.5 |
| 20260902021419 | 87 | 288 | 1.0 | 3.0 | 0.00 | 0.00 | 0.00 | 42 | 1014.5 |
| 20260902021408 | 87 | 259 | 2.0 | 6.0 | 0.00 | 0.00 | 0.00 | 42 | 1014.5 |
| 20260902020419 | 88 | 259 | 2.0 | 6.0 | 0.00 | 0.00 | 0.00 | 42 | 1014.4 |
| 20260902015917 | 88 | 224 | 2.0 | 7.0 | 0.00 | 0.00 | 0.00 | 42 | 1014.2 |
| 20260902015418 | 88 | 250 | 3.0 | 7.0 | 0.00 | 0.00 | 0.00 | 41 | 1014.2 |
| 20260902014917 | 88 | 257 | 4.0 | 7.0 | 0.00 | 0.00 | 0.00 | 41 | 1014.2 |
| 20260902014417 | 89 | 266 | 4.0 | 7.0 | 0.00 | 0.00 | 0.00 | 41 | 1014.1 |
| 20260902013916 | 89 | 273 | 4.0 | 9.0 | 0.00 | 0.00 | 0.00 | 41 | 1014.2 |
| 20260902013410 | 90 | 269 | 3.0 | 8.0 | 0.00 | 0.00 | 0.00 | 41 | 1014.2 |
| 20260902012903 | 90 | 259 | 4.0 | 7.0 | 0.00 | 0.00 | 0.00 | 41 | 1014.1 |
| 20260902012404 | 90 | 239 | 4.0 | 8.0 | 0.00 | 0.00 | 0.00 | 40 | 1014.1 |
| 20260902011902 | 90 | 278 | 4.0 | 10.0 | 0.00 | 0.00 | 0.00 | 40 | 1014.1 |
| 20260902011359 | 91 | 262 | 4.0 | 10.0 | 0.00 | 0.00 | 0.00 | 39 | 1014.1 |
| 20260902010900 | 91 | 217 | 3.0 | 7.0 | 0.00 | 0.00 | 0.00 | 39 | 1014.1 |
| 20260902010359 | 91 | 266 | 3.0 | 9.0 | 0.00 | 0.00 | 0.00 | 39 | 1014.0 |
| 20260902005902 | 91 | 272 | 4.0 | 10.0 | 0.00 | 0.00 | 0.00 | 38 | 1014.1 |
| 20260902005618 | 92 | 248 | 4.0 | 10.0 | 0.00 | 0.00 | 0.00 | 37 | 1014.0 |
| 20260902004859 | 92 | 263 | 4.0 | 7.0 | 0.00 | 0.00 | 0.00 | 36 | 1014.0 |
| 20260902004359 | 92 | 289 | 3.0 | 7.0 | 0.00 | 0.00 | 0.00 | 36 | 1014.1 |
| 20260902003858 | 92 | 288 | 3.0 | 9.0 | 0.00 | 0.00 | 0.00 | 36 | 1014.1 |
| 20260902003355 | 92 | 264 | 3.0 | 9.0 | 0.00 | 0.00 | 0.00 | 35 | 1014.1 |
| 20260902003125 | 92 | 23 | 4.0 | 11.0 | 0.00 | 0.00 | 0.00 | 36 | 1014.1 |
| 20260902002355 | 92 | 290 | 4.0 | 11.0 | 0.00 | 0.00 | 0.00 | 36 | 1014.2 |
| 20260902001857 | 93 | 337 | 3.0 | 8.0 | 0.00 | 0.00 | 0.00 | 35 | 1014.2 |
| 20260902001352 | 93 | 214 | 4.0 | 10.0 | 0.00 | 0.00 | 0.00 | 35 | 1014.2 |
| 20260902000848 | 93 | 249 | 3.0 | 10.0 | 0.00 | 0.00 | 0.00 | 35 | 1014.2 |
| 20260902000331 | 93 | 221 | 3.0 | 8.0 | 0.00 | 0.00 | 0.00 | 34 | 1014.2 |
| 20260902000053 | 93 | 253 | 4.0 | 8.0 | 0.00 | 0.00 | 0.00 | 35 | 1014.2 |
| 20260901235321 | 93 | 288 | 4.0 | 8.0 | 0.00 | 0.00 | 0.00 | 36 | 1014.2 |
| 20260901234811 | 93 | 285 | 4.0 | 9.0 | 0.00 | 0.00 | 0.00 | 36 | 1014.4 |
| 20260901234525 | 94 | 263 | 4.0 | 9.0 | 0.00 | 0.00 | 0.00 | 35 | 1014.4 |
| 20260901233759 | 94 | 291 | 3.0 | 8.0 | 0.00 | 0.00 | 0.00 | 35 | 1014.5 |
| 20260901233248 | 94 | 287 | 3.0 | 8.0 | 0.00 | 0.00 | 0.00 | 34 | 1014.6 |
| 20260901233007 | 94 | 252 | 4.0 | 8.0 | 0.00 | 0.00 | 0.00 | 35 | 1014.5 |
| 20260901232237 | 94 | 238 | 4.0 | 11.0 | 0.00 | 0.00 | 0.00 | 35 | 1014.6 |
| 20260901231726 | 94 | 282 | 4.0 | 11.0 | 0.00 | 0.00 | 0.00 | 36 | 1014.6 |
| 20260901231221 | 94 | 300 | 4.0 | 8.0 | 0.00 | 0.00 | 0.00 | 35 | 1014.7 |
| 20260901230711 | 94 | 283 | 4.0 | 8.0 | 0.00 | 0.00 | 0.00 | 35 | 1014.7 |
| 20260901230200 | 94 | 288 | 4.0 | 10.0 | 0.00 | 0.00 | 0.00 | 34 | 1014.7 |
| 20260901225655 | 94 | 271 | 3.0 | 10.0 | 0.00 | 0.00 | 0.00 | 33 | 1014.7 |
| 20260901225148 | 94 | 259 | 3.0 | 6.0 | 0.00 | 0.00 | 0.00 | 33 | 1014.8 |
| 20260901224900 | 94 | 286 | 4.0 | 8.0 | 0.00 | 0.00 | 0.00 | 34 | 1014.8 |
| 20260901224133 | 94 | 283 | 4.0 | 10.0 | 0.00 | 0.00 | 0.00 | 33 | 1014.8 |
| 20260901223845 | 94 | 260 | 4.0 | 10.0 | 0.00 | 0.00 | 0.00 | 33 | 1014.9 |
| 20260901223117 | 94 | 262 | 4.0 | 9.0 | 0.00 | 0.00 | 0.00 | 34 | 1014.9 |
| 20260901222609 | 95 | 359 | 3.0 | 9.0 | 0.00 | 0.00 | 0.00 | 33 | 1014.9 |
| 20260901222328 | 94 | 251 | 3.0 | 8.0 | 0.00 | 0.00 | 0.00 | 33 | 1015.0 |
| 20260901221554 | 94 | 214 | 4.0 | 8.0 | 0.00 | 0.00 | 0.00 | 34 | 1015.1 |
| 20260901221317 | 94 | 205 | 4.0 | 8.0 | 0.00 | 0.00 | 0.00 | 34 | 1015.2 |
| 20260901220543 | 94 | 224 | 4.0 | 9.0 | 0.00 | 0.00 | 0.00 | 34 | 1015.1 |
| 20260901220035 | 94 | 276 | 2.0 | 9.0 | 0.00 | 0.00 | 0.00 | 34 | 1015.2 |
| 20260901215530 | 94 | 233 | 3.0 | 9.0 | 0.00 | 0.00 | 0.00 | 34 | 1015.3 |
| 20260901215025 | 94 | 293 | 3.0 | 9.0 | 0.00 | 0.00 | 0.00 | 34 | 1015.4 |
| 20260901214515 | 94 | 315 | 3.0 | 8.0 | 0.00 | 0.00 | 0.00 | 35 | 1015.5 |
| 20260901214007 | 94 | 0 | 3.0 | 7.0 | 0.00 | 0.00 | 0.00 | 35 | 1015.5 |
| 20260901213503 | 94 | 277 | 3.0 | 7.0 | 0.00 | 0.00 | 0.00 | 34 | 1015.7 |
| 20260901212952 | 94 | 283 | 3.0 | 7.0 | 0.00 | 0.00 | 0.00 | 34 | 1015.7 |
| 20260901212446 | 94 | 276 | 3.0 | 9.0 | 0.00 | 0.00 | 0.00 | 35 | 1015.9 |
| 20260901211941 | 94 | 212 | 2.0 | 9.0 | 0.00 | 0.00 | 0.00 | 34 | 1015.9 |
| 20260901211429 | 94 | 213 | 2.0 | 6.0 | 0.00 | 0.00 | 0.00 | 34 | 1016.1 |
| 20260901210923 | 94 | 280 | 2.0 | 5.0 | 0.00 | 0.00 | 0.00 | 34 | 1016.1 |
| 20260901210419 | 94 | 252 | 2.0 | 6.0 | 0.00 | 0.00 | 0.00 | 34 | 1016.2 |
| 20260901205907 | 93 | 262 | 2.0 | 6.0 | 0.00 | 0.00 | 0.00 | 34 | 1016.2 |
| 20260901205402 | 93 | 291 | 2.0 | 6.0 | 0.00 | 0.01 | 0.00 | 34 | 1016.2 |
| 20260901204857 | 93 | 203 | 2.0 | 7.0 | 0.00 | 0.02 | 0.00 | 35 | 1016.3 |
| 20260901204828 | 93 | 231 | 3.0 | 9.0 | 0.00 | 0.03 | 0.00 | 35 | 1016.4 |
| 20260901204100 | 93 | 262 | 4.0 | 9.0 | 0.00 | 0.04 | 0.00 | 35 | 1016.5 |
| 20260901203335 | 93 | 262 | 4.0 | 9.0 | 0.00 | 0.05 | 0.00 | 35 | 1016.6 |
| 20260901203055 | 94 | 231 | 3.0 | 7.0 | 0.00 | 0.05 | 0.00 | 36 | 1016.6 |
| 20260901202331 | 94 | 98 | 3.0 | 7.0 | 0.00 | 0.06 | 0.00 | 36 | 1016.7 |
| 20260901201833 | 94 | 214 | 2.0 | 7.0 | 0.00 | 0.07 | 0.00 | 36 | 1016.7 |
| 20260901201331 | 93 | 192 | 2.0 | 9.0 | 0.00 | 0.08 | 0.00 | 36 | 1016.8 |
| 20260901201102 | 92 | 257 | 2.0 | 9.0 | 0.00 | 0.10 | 0.00 | 37 | 1017.0 |
| 20260901200331 | 92 | 266 | 2.0 | 8.0 | 0.00 | 0.11 | 0.00 | 36 | 1017.0 |
| 20260901195832 | 92 | 271 | 2.0 | 6.0 | 0.00 | 0.13 | 0.00 | 37 | 1017.1 |
| 20260901195335 | 92 | 264 | 2.0 | 7.0 | 0.00 | 0.13 | 0.00 | 36 | 1017.1 |
| 20260901194835 | 92 | 251 | 2.0 | 7.0 | 0.00 | 0.14 | 0.00 | 37 | 1017.1 |
| 20260901194331 | 92 | 323 | 2.0 | 6.0 | 0.00 | 0.15 | 0.00 | 37 | 1017.1 |
| 20260901193831 | 92 | 44 | 3.0 | 8.0 | 0.00 | 0.18 | 0.00 | 37 | 1017.3 |
| 20260901193555 | 91 | 221 | 3.0 | 8.0 | 0.00 | 0.25 | 0.00 | 37 | 1017.4 |
| 20260901192831 | 92 | 211 | 2.0 | 5.0 | 0.00 | 0.31 | 0.00 | 38 | 1017.4 |
| 20260901192325 | 91 | 281 | 2.0 | 5.0 | 0.00 | 0.32 | 0.00 | 38 | 1017.5 |
| 20260901191822 | 92 | 267 | 2.0 | 5.0 | 0.00 | 0.32 | 0.00 | 36 | 1017.5 |